Regional Weather Roundup
Issued by NWS

Home | Current Version | Previous Version | Graphics & Text | Print | Product List | Glossary On
Versions: 1 2 3 4 5 6 7 8 9 10 11 12 13 14 15 16 17 18 19 20 21 22 23 24 25 26 27 28
000
ASUS45 KCYS 221210
RWRWY

WYOMING REGIONAL WEATHER ROUNDUP
NATIONAL WEATHER SERVICE CHEYENNE WY
600 AM MDT SAT JUL 22 2017

NOTE:  "FAIR" INDICATES FEW OR NO CLOUDS BELOW 12,000 FEET
WITH NO SIGNIFICANT WEATHER AND/OR OBSTRUCTIONS TO VISIBILITY.

WYZ001-221300-
YELLOWSTONE NATIONAL PARK

CITY           SKY/WX    TMP DP  RH WIND       PRES   REMARKS
LK YELLOWSTONE   N/A     38  35  89 CALM      30.40R
6HR MIN TEMP:  37; 6HR MAX TEMP:  47;

W YELLOWSTONE  NOT AVBL

$$
WYZ002>013-054>058-071-098>099-221300-
NORTHERN WYOMING

CITY           SKY/WX    TMP DP  RH WIND       PRES   REMARKS
JACKSON        FAIR      39  34  81 N3        30.32R
CODY           FAIR      56  36  47 S3        30.21R
GREYBULL       FAIR      62  33  33 CALM      30.09R
6HR MIN TEMP:  61; 6HR MAX TEMP:  80;

WORLAND        FAIR      55  35  47 E3        30.12R
6HR MIN TEMP:  55; 6HR MAX TEMP:  73;

SHERIDAN       FAIR      56  40  55 CALM      30.13R
6HR MIN TEMP:  56; 6HR MAX TEMP:  65;

BUFFALO        FAIR      66  31  27 N16       30.17R
6HR MIN TEMP:  64; 6HR MAX TEMP:  69;

GILLETTE       FAIR      52  38  58 S3        30.12R
6HR MIN TEMP:  52; 6HR MAX TEMP:  60;

HULETT         FAIR      57  37  47 S3        30.12R
NEWCASTLE      FAIR      63  43  48 N5        30.10S

$$
WYZ014>020-022>026-101>103-221300-
CENTRAL WYOMING

CITY           SKY/WX    TMP DP  RH WIND       PRES   REMARKS
BIG PINEY      FAIR      45  35  68 E6        30.34R
6HR MIN TEMP:  42; 6HR MAX TEMP:  52;

PINEDALE       FAIR      39  34  81 NW8       30.34R WCI  34
DUBOIS         FAIR      46  28  49 W14       30.33S
LANDER         FAIR      61  28  28 W7        30.22R
6HR MIN TEMP:  55; 6HR MAX TEMP:  71;

RIVERTON       FAIR      58  33  39 NW13      30.20R
6HR MIN TEMP:  57; 6HR MAX TEMP:  68;

CASPER         FAIR      58  49  72 W9        30.17R
6HR MIN TEMP:  57; 6HR MAX TEMP:  72;

DOUGLAS        FAIR      58  52  80 N5        30.14R
6HR MIN TEMP:  58; 6HR MAX TEMP:  69;


$$
WYZ021-027>030-104>119-221300-
SOUTHERN WYOMING

CITY           SKY/WX    TMP DP  RH WIND       PRES   REMARKS
EVANSTON       FAIR      56  42  59 SW3       30.32R
6HR MIN TEMP:  56; 6HR MAX TEMP:  66;

KEMMERER         N/A     50  32  50 N10       30.34R
FORT BRIDGER   FAIR      62  34  35 W7        30.34R
ROCK SPRINGS   FAIR      58  49  72 N3        30.30R
6HR MIN TEMP:  55; 6HR MAX TEMP:  65;

RAWLINS        FAIR      52  46  80 CALM      30.30R
6HR MIN TEMP:  52; 6HR MAX TEMP:  61;

SARATOGA       PTSUNNY   54  52  94 S8        30.31S
LARAMIE        FAIR      50  47  89 S7        30.30R
6HR MIN TEMP:  49; 6HR MAX TEMP:  55;

CHEYENNE       FAIR      59  50  72 NW9       30.19S
6HR MIN TEMP:  58; 6HR MAX TEMP:  64;

TORRINGTON     FAIR      63  56  78 CALM      30.05S
6HR MIN TEMP:  61; 6HR MAX TEMP:  73;

PINE BLUFFS    FAIR      55  52  88 CALM      30.12S

$$




USA.gov is the U.S. government's official web portal to all federal, state and local government web resources and services.